Le nostre stazioni meteo in Italia

Pubblicità
Il mio iltempo24.it
Pian Rosa, Italia (16052): Temperatura & dewpoint: 13.06.2019 01:00:00 - 19.06.2019 01:00:00 (CEST)Pian Rosa, Italia (16052): velocità del vento: 13.06.2019 01:00:00 - 19.06.2019 01:00:00 (CEST)Pian Rosa, Italia (16052): direzione del vento: 13.06.2019 01:00:00 - 19.06.2019 01:00:00 (CEST)Pian Rosa, Italia (16052): visibility: 13.06.2019 01:00:00 - 19.06.2019 01:00:00 (CEST)Pian Rosa, Italia (16052): ore di luce: 13.06.2019 01:00:00 - 19.06.2019 01:00:00 (CEST)
Data & Tempo tt [°C] td [°C] ff [km/h] ff [kn] dd vv [km] sd [min]
19.06.2019 01:00:00 0,4 -4,1 18 10 SSE 10 -
19.06.2019 00:00:00 0,0 -3,7 18 10 S 10 -
18.06.2019 23:00:00 1,6 -3,7 5 3 N 0,5 -
18.06.2019 22:00:00 1,4 0,7 5 3 N 0,5 -
18.06.2019 21:00:00 3,0 0,7 5 3 N 0,1 -
18.06.2019 20:00:00 5,8 2,4 5 3 N 0,1 0
18.06.2019 19:00:00 6,0 0,6 9 5 SSO 1,0 0
18.06.2019 18:00:00 6,2 1,7 9 5 S 6 0
18.06.2019 17:00:00 6,0 1,7 5 3 N 0,3 0
18.06.2019 16:00:00 5,6 1,3 5 3 N 0,1 6
18.06.2019 15:00:00 6,8 1,3 4 2 N 0,1 48
18.06.2019 14:00:00 6,6 0,7 4 2 N 3,0 36
18.06.2019 13:00:00 5,4 0,0 9 5 S 3,0 60
18.06.2019 12:00:00 6,2 -0,5 18 10 SE 20 60
18.06.2019 11:00:00 6,2 -4,0 18 10 S 20 60
18.06.2019 10:00:00 5,4 -6,5 9 5 S 30 60
18.06.2019 09:00:00 4,8 -5,8 18 10 S 80 60
18.06.2019 08:00:00 3,8 -6,2 18 10 S 80 42
18.06.2019 07:00:00 1,0 -4,2 18 10 S 50 -
18.06.2019 06:00:00 0,6 -3,0 18 10 S 35 -
18.06.2019 05:00:00 1,0 -0,8 18 10 SE 25 -
18.06.2019 04:00:00 1,0 1,0 9 5 S 0,1 -
18.06.2019 03:00:00 1,0 0,9 9 5 S 0,1 -
18.06.2019 02:00:00 1,8 -0,4 18 10 SSO 3,5 -
18.06.2019 01:00:00 2,0 -0,1 9 5 S 5 -
18.06.2019 00:00:00 2,2 0,1 4 2 - 9 -
17.06.2019 23:00:00 2,2 2,1 0 0 N 7 -
17.06.2019 22:00:00 2,6 0,8 0 0 N 3,0 -
17.06.2019 21:00:00 -4,0 -6,1 9 5 S 3,0 24
17.06.2019 20:00:00 4,8 0,8 0 0 N 3,0 60
17.06.2019 19:00:00 3,8 -2,8 0 0 N 8 48
17.06.2019 18:00:00 4,0 -4,2 0 0 N 5 60
17.06.2019 17:00:00 6,0 1,0 0 0 N 5 36
17.06.2019 16:00:00 6,4 1,7 18 10 S 3,0 60
17.06.2019 15:00:00 6,2 1,1 18 10 S 7 60
17.06.2019 14:00:00 5,4 -0,4 18 10 SSO 7 60
17.06.2019 13:00:00 4,8 -0,4 18 10 SSO 7 60
17.06.2019 12:00:00 4,6 -0,8 18 10 SSO 9 60
17.06.2019 11:00:00 2,8 -8,5 18 10 SSO 75 60
17.06.2019 10:00:00 2,2 -10,7 18 10 SSO 75 60
17.06.2019 09:00:00 3,0 -10,3 9 5 SSO 80 60
17.06.2019 08:00:00 2,2 -12,4 9 5 SO 80 36
17.06.2019 07:00:00 -0,2 -12,5 9 5 SO 10 0
17.06.2019 06:00:00 -1,6 -10,4 9 5 SSO 50 0
17.06.2019 05:00:00 -1,2 -14,7 4 2 - 50 -
17.06.2019 04:00:00 -0,8 -16,2 5 3 N 20 -
17.06.2019 03:00:00 0,2 -22,7 5 3 N 20 -
17.06.2019 02:00:00 0,2 -21,4 9 5 ENE 20 -
17.06.2019 01:00:00 0,4 -21,8 18 10 ENE 20 -
17.06.2019 00:00:00 0,0 -20,3 18 10 ENE 20 -
16.06.2019 23:00:00 -1,8 -4,8 28 15 ENE 10 -
16.06.2019 22:00:00 -1,6 -1,6 18 10 ENE 30 -
16.06.2019 21:00:00 -0,4 -0,7 13 7 NE 50 48
16.06.2019 20:00:00 -0,4 -2,6 9 5 ENE 50 54
16.06.2019 19:00:00 -0,6 -3,1 9 5 ENE 50 60
16.06.2019 18:00:00 -0,6 -4,3 18 10 NE 50 60
16.06.2019 17:00:00 -0,2 -4,6 18 10 NE 50 60
16.06.2019 16:00:00 0,0 -13,0 9 5 ENE 50 60
16.06.2019 15:00:00 0,6 -16,3 9 5 NE 50 60
16.06.2019 14:00:00 1,4 -20,3 9 5 ENE 50 60
16.06.2019 13:00:00 0,8 -25,4 9 5 NNE 50 60
16.06.2019 12:00:00 0,2 -27,9 9 5 NE 50 60
16.06.2019 11:00:00 0,2 -27,9 9 5 NE 50 60
16.06.2019 10:00:00 -0,8 -18,8 9 5 NE 50 60
16.06.2019 09:00:00 -1,6 -16,9 18 10 NE 50 60
16.06.2019 08:00:00 -2,0 -16,5 28 15 ENE 50 36
16.06.2019 07:00:00 -2,0 -16,1 28 15 ENE 50 -
16.06.2019 06:00:00 -2,4 -14,8 28 15 ENE 80 -
16.06.2019 05:00:00 -2,6 -13,7 18 10 NE 30 -
16.06.2019 04:00:00 -2,6 -11,6 9 5 NE 20 -
16.06.2019 03:00:00 -2,8 -12,8 9 5 NE 10 -
16.06.2019 02:00:00 -2,8 -11,0 9 5 SO 10 -
16.06.2019 01:00:00 -3,0 -5,6 18 10 SO 10 -
16.06.2019 00:00:00 -2,6 -4,6 28 15 SO 10 -
15.06.2019 23:00:00 -1,8 -4,0 28 15 SO 10 -
15.06.2019 22:00:00 -1,6 -2,3 28 15 SO 10 -
15.06.2019 21:00:00 -1,4 -1,4 28 15 SSO 0,1 0
15.06.2019 20:00:00 -1,0 -1,0 37 20 S 0,1 0
15.06.2019 19:00:00 -0,6 -0,6 37 20 S 0,1 0
15.06.2019 18:00:00 2,0 -4,9 28 15 S 0,8 0
15.06.2019 17:00:00 3,0 -4,0 18 10 S 0,8 0
15.06.2019 16:00:00 3,4 -1,5 18 10 S 0,8 0
15.06.2019 15:00:00 3,6 -2,8 18 10 S 0,8 24
15.06.2019 14:00:00 3,4 -2,8 28 15 S 3,0 60
15.06.2019 13:00:00 3,4 -2,1 28 15 S 3,0 48
15.06.2019 12:00:00 3,2 -2,5 18 10 SSO 2,0 60
15.06.2019 11:00:00 3,4 -3,6 18 10 S 2,0 54
15.06.2019 10:00:00 2,4 -6,0 28 15 S 5 60
15.06.2019 09:00:00 1,6 -1,0 18 10 S 2,0 18
15.06.2019 08:00:00 1,2 -2,4 37 20 S 3,0 0
15.06.2019 07:00:00 -0,2 -1,9 37 20 S 0,8 0
15.06.2019 06:00:00 -0,2 -0,2 18 10 SSO 0,1 -
15.06.2019 05:00:00 -0,4 -0,4 46 25 S 0,8 -
15.06.2019 04:00:00 -0,6 -0,6 55 30 S 0,1 -
15.06.2019 03:00:00 -0,4 -0,4 55 30 S 0,1 -
15.06.2019 02:00:00 -0,4 -0,4 65 35 S 0,1 -
15.06.2019 01:00:00 -0,2 -0,2 46 25 S 0,1 -
15.06.2019 00:00:00 0,2 0,2 46 25 S 0,1 -
14.06.2019 23:00:00 0,0 0,0 37 20 S 0,1 -
14.06.2019 22:00:00 -0,2 -0,2 74 40 S 0,1 -
14.06.2019 21:00:00 0,2 0,2 37 20 SSE 0,1 0
14.06.2019 20:00:00 -0,2 -0,2 18 10 S 0,2 0
14.06.2019 19:00:00 0,6 -0,1 28 15 S 0,8 0
14.06.2019 18:00:00 1,2 -0,3 28 15 S 0,4 0
14.06.2019 17:00:00 1,4 1,2 28 15 S 0,3 0
14.06.2019 16:00:00 2,2 0,7 28 15 SSO 0,8 0
14.06.2019 15:00:00 2,4 0,3 37 20 S 5 0
14.06.2019 14:00:00 2,2 -1,4 37 20 SSO 50 12
14.06.2019 13:00:00 2,0 -1,6 37 20 S 50 24
14.06.2019 12:00:00 2,4 -0,5 46 25 S 50 12
14.06.2019 11:00:00 2,0 -2,9 37 20 S 50 0
14.06.2019 10:00:00 - - - - - - -
14.06.2019 09:00:00 1,2 -3,1 65 35 S 50 0
14.06.2019 08:00:00 0,6 -3,7 74 40 S 50 0
14.06.2019 07:00:00 -0,4 -0,4 65 35 S 50 -
14.06.2019 06:00:00 0,8 -4,0 46 25 S 10 -
14.06.2019 05:00:00 0,8 -4,7 70 38 SO 15 -
14.06.2019 04:00:00 0,4 -4,0 74 40 SSO 10 -
14.06.2019 03:00:00 0,2 -4,7 70 38 SSO 10 -
14.06.2019 02:00:00 -1,0 -5,8 52 28 SSO 10 -
14.06.2019 01:00:00 -0,6 -14,2 55 30 O 10 -
14.06.2019 00:00:00 -0,2 -19,4 63 34 SSO 10 -
13.06.2019 23:00:00 -0,4 -18,0 55 30 SSO 10 -
13.06.2019 22:00:00 -0,6 -14,2 55 30 SSO 10 -
13.06.2019 21:00:00 0,0 -12,0 55 30 SSO 1,5 -
13.06.2019 20:00:00 0,0 -1,5 37 20 S 0,8 0
13.06.2019 19:00:00 0,2 -1,2 28 15 S 0,8 0
13.06.2019 18:00:00 0,2 -1,2 28 15 S 0,8 6
13.06.2019 17:00:00 -0,4 -2,3 28 15 S 0,3 60
13.06.2019 16:00:00 -0,6 -6,3 28 15 S 10 60
13.06.2019 15:00:00 -0,8 -9,4 28 15 S 50 60
13.06.2019 14:00:00 -0,8 -10,6 28 15 S 50 60
13.06.2019 13:00:00 -1,0 -12,9 28 15 SO 50 60
13.06.2019 12:00:00 -1,6 -15,5 22 12 OSO 50 60
13.06.2019 11:00:00 -2,4 -24,1 28 15 SO 50 60
13.06.2019 10:00:00 -3,0 -27,7 39 21 SSO 50 60
13.06.2019 09:00:00 -3,0 -24,6 48 26 S 50 60
13.06.2019 08:00:00 -3,0 -22,3 46 25 S 50 30
13.06.2019 07:00:00 -4,4 -21,0 28 15 SSO 50 0
13.06.2019 06:00:00 -4,4 -20,5 37 20 S 50 -
13.06.2019 05:00:00 -4,4 -18,3 55 30 S 30 -
13.06.2019 04:00:00 -4,2 -15,8 37 20 S 10 -
13.06.2019 03:00:00 -4,0 -10,6 46 25 S 10 -
13.06.2019 02:00:00 -3,6 -3,6 18 10 S 0,3 -
13.06.2019 01:00:00 -3,4 -3,4 37 20 S 0,8 -

tt = Temperatura
td = dewpoint
ff = velocità del vento
dd = direzione del vento
vv = visibility
sd = ore di luce

Stazioni seguenti

WeatherPro
AMSI
MeteoEarth